Grant County, OR

5:11 AM PDT on April 21, 2018 (GMT -0700)
Grant County Regional

Weather History for KGCD - September, 2013

Change the Weather History Date:

Monday, September 2, 2013

  Actual Average (KBNO) Record (KBNO)
Temperature  
Mean Temperature 72 °F -  
Max Temperature 83 °F 78 °F 100 °F (1950)
Min Temperature 62 °F 39 °F 29 °F (2012)
Cooling Degree Days 8    
Growing Degree Days 22 (Base 50)    
Moisture  
Dew Point 55 °F    
Average Humidity 58    
Maximum Humidity 87    
Minimum Humidity 34    
Precipitation  
Precipitation 0.05 in - - ()
Sea Level Pressure  
Sea Level Pressure 29.96 in    
Wind  
Wind Speed 11 mph (SSE)    
Max Wind Speed 32 mph    
Max Gust Speed 41 mph    
Visibility 10 miles    
Events Rain    
Averages and records for this station are not official NWS values.
T = Trace of Precipitation, MM = Missing Value Source: NWS Daily Summary

Daily Weather History Graph

Daily Weather History Graph

Search for Another Location

Airport or City:

Astronomy

Sep. 02, 2013 Rise Set
Actual Time 6:20 AM PDT 7:29 PM PDT
Civil Twilight 5:50 AM PDT 7:59 PM PDT
Nautical Twilight 5:14 AM PDT 8:35 PM PDT
Astronomical Twilight 4:36 AM PDT 9:12 PM PDT
Moon 3:37 AM PDT (9/2) 5:48 PM PDT (9/2)
Length of Visible Light 14h 09m
Length of Day
13h 09m
Waning Crescent, 7% of the Moon is Illuminated
Sep 2
Waning Crescent
Sep 5
New
Sep 12
First Quarter
Sep 19
Full
Sep 26
Last Quarter

Hourly Weather History & Observations

Time (PDT) Temp. Heat Index Dew Point Humidity Pressure Visibility Wind Dir Wind Speed Gust Speed Precip Events Conditions
12:15 AM 74.1 °F - 47.1 °F 38% 29.92 in 10.0 mi SE 10.4 mph - N/A   Overcast
12:35 AM 72.5 °F - 47.5 °F 41% 29.92 in 10.0 mi Calm Calm - N/A   Overcast
12:55 AM 74.1 °F - 47.3 °F 38% 29.94 in 10.0 mi WSW 4.6 mph - N/A   Overcast
1:15 AM 75.2 °F - 48.6 °F 39% 29.95 in 10.0 mi South 21.9 mph 29.9 mph N/A   Overcast
1:35 AM 69.4 °F - 52.9 °F 56% 29.95 in 10.0 mi South 16.1 mph 21.9 mph N/A Rain Light Rain
1:55 AM 70.9 °F - 52.2 °F 51% 29.97 in 10.0 mi South 18.4 mph 21.9 mph N/A   Light Drizzle
2:15 AM 68.7 °F - 54.1 °F 60% 29.97 in 10.0 mi South 18.4 mph 24.2 mph N/A Rain Rain
2:35 AM 68.9 °F - 54.0 °F 59% 29.97 in 10.0 mi South 15.0 mph 20.7 mph N/A   Mostly Cloudy
2:55 AM 67.6 °F - 55.9 °F 66% 29.96 in 10.0 mi South 25.3 mph 31.1 mph N/A Rain Light Rain
3:15 AM 65.5 °F - 57.2 °F 75% 29.95 in 10.0 mi South 18.4 mph 31.1 mph N/A Rain Rain
3:35 AM 65.5 °F - 57.2 °F 75% 29.96 in 10.0 mi South 10.4 mph 19.6 mph 0.01 in Rain Light Rain
3:55 AM 64.9 °F - 56.8 °F 75% 29.95 in 10.0 mi West 3.5 mph - 0.01 in   Light Drizzle
4:15 AM 65.8 °F - 56.1 °F 71% 29.94 in 10.0 mi Calm Calm - N/A   Scattered Clouds
4:35 AM 65.7 °F - 56.5 °F 72% 29.95 in 10.0 mi East 3.5 mph - N/A   Scattered Clouds
4:55 AM 64.8 °F - 57.4 °F 77% 29.94 in 10.0 mi East 10.4 mph - N/A Rain Light Rain
5:15 AM 64.6 °F - 57.2 °F 77% 29.95 in 10.0 mi SE 4.6 mph - N/A Rain Light Rain
5:35 AM 65.8 °F - 57.0 °F 73% 29.97 in 10.0 mi SSE 11.5 mph 16.1 mph N/A Rain Light Rain
5:55 AM 64.0 °F - 58.3 °F 82% 29.96 in 10.0 mi SSE 9.2 mph - 0.01 in Rain Light Rain
6:15 AM 62.6 °F - 58.8 °F 87% 29.95 in 10.0 mi North 3.5 mph - 0.01 in Rain Rain
6:35 AM 64.0 °F - 58.3 °F 82% 29.95 in 10.0 mi SSE 12.7 mph - 0.01 in   Overcast
6:55 AM 63.5 °F - 58.6 °F 84% 29.96 in 10.0 mi ESE 3.5 mph - 0.01 in   Mostly Cloudy
7:15 AM 63.7 °F - 58.6 °F 84% 29.97 in 10.0 mi NE 6.9 mph - N/A Rain Light Rain
7:35 AM 64.0 °F - 58.6 °F 83% 29.97 in 10.0 mi South 8.1 mph - N/A Rain Light Rain
7:55 AM 64.8 °F - 59.2 °F 82% 29.98 in 10.0 mi SSE 10.4 mph - N/A   Scattered Clouds
8:15 AM 63.3 °F - 59.5 °F 87% 29.98 in 10.0 mi SSE 8.1 mph - N/A Rain Light Rain
8:35 AM 64.0 °F - 60.1 °F 87% 29.98 in 10.0 mi SE 5.8 mph - N/A   Scattered Clouds
8:55 AM 66.6 °F - 61.0 °F 82% 29.99 in 10.0 mi East 3.5 mph - N/A   Mostly Cloudy
9:15 AM 66.7 °F - 60.4 °F 80% 29.99 in 10.0 mi ESE 4.6 mph - N/A   Overcast
9:35 AM 68.7 °F - 61.9 °F 79% 29.99 in 10.0 mi South 5.8 mph - N/A   Mostly Cloudy
9:55 AM 70.0 °F - 59.7 °F 70% 30.00 in 10.0 mi South 8.1 mph - N/A   Mostly Cloudy
10:15 AM 69.3 °F - 59.4 °F 71% 30.01 in 10.0 mi South 13.8 mph 19.6 mph N/A   Overcast
10:35 AM 67.1 °F - 60.6 °F 80% 30.01 in 10.0 mi South 12.7 mph - 0.01 in Rain Light Rain
10:55 AM 67.1 °F - 61.0 °F 81% 30.01 in 10.0 mi SSE 9.2 mph - 0.01 in Rain Light Rain
11:15 AM 66.6 °F - 62.6 °F 87% 30.01 in 10.0 mi ESE 3.5 mph - 0.01 in Rain Light Rain
11:35 AM 67.8 °F - 62.6 °F 83% 30.00 in 10.0 mi SE 4.6 mph - 0.01 in   Overcast
11:55 AM 68.9 °F - 61.5 °F 77% 30.00 in 10.0 mi SSE 5.8 mph - 0.01 in   Overcast
12:15 PM 72.5 °F - 60.6 °F 66% 30.00 in 10.0 mi South 11.5 mph - N/A   Overcast
12:35 PM 73.8 °F - 59.5 °F 61% 29.99 in 10.0 mi South 9.2 mph - N/A   Scattered Clouds
12:55 PM 75.2 °F - 60.1 °F 59% 29.98 in 10.0 mi South 9.2 mph 16.1 mph N/A   Scattered Clouds
1:15 PM 76.8 °F - 59.7 °F 55% 29.98 in 10.0 mi SSE 15.0 mph 20.7 mph N/A   Scattered Clouds
1:35 PM 78.4 °F - 59.2 °F 51% 29.98 in 10.0 mi SSE 15.0 mph 19.6 mph N/A   Clear
1:55 PM 77.9 °F - 59.2 °F 52% 29.97 in 10.0 mi South 12.7 mph - N/A   Clear
2:15 PM 77.5 °F - 58.6 °F 52% 29.97 in 10.0 mi SSE 11.5 mph 18.4 mph N/A   Clear
2:35 PM 81.0 °F 81.0 °F 57.4 °F 44% 29.96 in 10.0 mi SSE 9.2 mph 16.1 mph N/A   Clear
2:55 PM 81.0 °F 80.7 °F 55.2 °F 41% 29.96 in 10.0 mi South 11.5 mph 24.2 mph N/A   Clear
3:15 PM 81.7 °F 81.2 °F 55.0 °F 40% 29.95 in 10.0 mi South 13.8 mph 20.7 mph N/A   Clear
3:35 PM 81.0 °F 80.5 °F 53.8 °F 39% 29.94 in 10.0 mi South 13.8 mph 18.4 mph N/A   Clear
3:55 PM 80.4 °F 80.1 °F 53.4 °F 39% 29.94 in 10.0 mi South 13.8 mph 23.0 mph N/A   Clear
4:15 PM 82.0 °F - 51.6 °F 35% 29.93 in 10.0 mi South 11.5 mph 23.0 mph N/A   Clear
4:35 PM 83.1 °F - 52.0 °F 34% 29.93 in 10.0 mi South 13.8 mph 20.7 mph N/A   Clear
4:55 PM 80.2 °F - 51.8 °F 37% 29.93 in 10.0 mi SSW 13.8 mph 25.3 mph N/A   Clear
5:15 PM 81.0 °F - 52.2 °F 37% 29.92 in 10.0 mi South 16.1 mph 23.0 mph N/A   Clear
5:35 PM 81.5 °F - 52.0 °F 36% 29.92 in 10.0 mi South 18.4 mph 25.3 mph N/A   Clear
5:55 PM 81.5 °F - 52.0 °F 36% 29.91 in 10.0 mi South 15.0 mph 26.5 mph N/A   Clear
6:15 PM 79.2 °F - 53.6 °F 41% 29.91 in 10.0 mi SSE 13.8 mph 26.5 mph N/A   Clear
6:35 PM 78.3 °F - 54.7 °F 44% 29.91 in 10.0 mi South 13.8 mph 21.9 mph N/A   Clear
6:55 PM 77.5 °F - 55.0 °F 46% 29.90 in 10.0 mi South 16.1 mph 25.3 mph N/A   Clear
7:15 PM 77.0 °F - 55.6 °F 47% 29.91 in 10.0 mi South 18.4 mph 28.8 mph N/A   Clear
7:35 PM 75.7 °F - 50.9 °F 42% 29.90 in 10.0 mi South 25.3 mph 36.8 mph N/A   Clear
7:55 PM 74.7 °F - 50.2 °F 42% 29.91 in 10.0 mi South 31.1 mph 40.3 mph N/A   Clear
8:15 PM 73.9 °F - 47.5 °F 39% 29.91 in 10.0 mi South 32.2 mph 41.4 mph N/A   Clear
8:35 PM 73.4 °F - 47.5 °F 40% 29.92 in 10.0 mi South 24.2 mph 35.7 mph N/A   Clear
8:55 PM 73.6 °F - 48.4 °F 41% 29.92 in 10.0 mi South 20.7 mph 33.4 mph N/A   Clear
9:15 PM 73.8 °F - 47.7 °F 40% 29.94 in 10.0 mi ESE 11.5 mph 19.6 mph N/A   Clear
9:35 PM 74.1 °F - 46.8 °F 38% 29.96 in 10.0 mi SSE 9.2 mph 26.5 mph N/A   Clear
9:55 PM 73.6 °F - 46.4 °F 38% 29.97 in 10.0 mi SSE 8.1 mph - N/A   Clear
10:15 PM 73.9 °F - 47.1 °F 38% 29.96 in 10.0 mi NNW 9.2 mph 15.0 mph N/A   Clear
10:35 PM 72.7 °F - 47.5 °F 41% 29.97 in 10.0 mi ESE 4.6 mph 19.6 mph N/A   Clear
10:55 PM 71.8 °F - 47.8 °F 43% 29.98 in 10.0 mi SE 15.0 mph 23.0 mph N/A   Clear
11:15 PM 71.2 °F - 48.4 °F 44% 29.98 in 10.0 mi SSE 15.0 mph 19.6 mph N/A   Clear
11:35 PM 71.6 °F - 49.1 °F 45% 29.97 in 10.0 mi SSE 13.8 mph 18.4 mph N/A   Clear
11:55 PM 70.9 °F - 49.1 °F 46% 29.99 in 10.0 mi South 10.4 mph 20.7 mph N/A   Clear